Time,TemperatureF,DewpointF,PressureIn,WindDirection,WindDirectionDegrees,WindSpeedMPH,WindSpeedGustMPH,Humidity,HourlyPrecipIn,Conditions,Clouds,dailyrainin,SoftwareType,DateUTC
2013-06-28 00:00:00,66.6,64.2,29.58,West,263,0.0,0.0,92,0.00,,,0.21,Wunderground v.1.15,2013-06-28 04:00:00,
2013-06-28 00:01:00,66.6,64.2,29.58,West,263,0.0,0.0,92,0.00,,,0.00,Wunderground v.1.15,2013-06-28 04:01:00,
2013-06-28 00:04:00,66.4,64.0,29.58,West,263,0.0,0.0,92,0.00,,,0.00,Wunderground v.1.15,2013-06-28 04:04:00,
2013-06-28 00:09:00,66.2,63.8,29.58,West,263,0.0,0.0,92,0.00,,,0.00,Wunderground v.1.15,2013-06-28 04:09:00,
2013-06-28 00:12:00,66.1,63.7,29.58,West,263,0.0,0.0,92,0.00,,,0.00,Wunderground v.1.15,2013-06-28 04:12:00,
2013-06-28 00:18:00,65.9,63.5,29.58,West,263,0.0,0.0,92,0.00,,,0.00,Wunderground v.1.15,2013-06-28 04:18:00,
2013-06-28 00:23:00,66.1,63.7,29.58,West,263,0.0,0.0,92,0.00,,,0.00,Wunderground v.1.15,2013-06-28 04:23:00,
2013-06-28 00:28:00,65.9,63.5,29.58,West,263,0.0,0.0,92,0.00,,,0.00,Wunderground v.1.15,2013-06-28 04:28:00,
2013-06-28 00:35:00,65.8,63.4,29.58,West,263,0.0,0.0,92,0.00,,,0.00,Wunderground v.1.15,2013-06-28 04:35:00,
2013-06-28 00:40:00,65.6,63.2,29.58,West,263,0.0,0.0,92,0.00,,,0.00,Wunderground v.1.15,2013-06-28 04:40:00,
2013-06-28 00:45:00,65.5,63.1,29.58,West,262,0.0,0.0,92,0.00,,,0.00,Wunderground v.1.15,2013-06-28 04:45:00,
2013-06-28 00:51:00,65.5,63.1,29.58,West,261,0.0,0.0,92,0.00,,,0.01,Wunderground v.1.15,2013-06-28 04:51:00,
2013-06-28 00:57:00,65.5,63.1,29.58,West,261,0.0,0.0,92,0.00,,,0.01,Wunderground v.1.15,2013-06-28 04:57:00,
2013-06-28 01:02:00,65.4,63.0,29.58,West,262,0.0,0.0,92,0.00,,,0.01,Wunderground v.1.15,2013-06-28 05:02:00,
2013-06-28 01:08:00,65.4,63.0,29.58,West,262,0.0,0.0,92,0.00,,,0.01,Wunderground v.1.15,2013-06-28 05:08:00,
2013-06-28 01:13:00,65.6,63.2,29.58,SW,231,0.0,0.0,92,0.00,,,0.01,Wunderground v.1.15,2013-06-28 05:13:00,
2013-06-28 01:20:00,65.5,63.1,29.58,SW,231,0.0,0.0,92,0.00,,,0.01,Wunderground v.1.15,2013-06-28 05:20:00,
2013-06-28 01:25:00,65.4,63.0,29.58,SW,231,0.0,0.0,92,0.00,,,0.01,Wunderground v.1.15,2013-06-28 05:25:00,
2013-06-28 01:31:00,65.3,62.9,29.58,SW,230,0.0,0.0,92,0.00,,,0.01,Wunderground v.1.15,2013-06-28 05:31:00,
2013-06-28 01:36:00,65.2,62.8,29.58,SW,231,0.0,0.0,92,0.00,,,0.01,Wunderground v.1.15,2013-06-28 05:36:00,
2013-06-28 01:42:00,65.1,62.7,29.57,SW,230,0.0,0.0,92,0.00,,,0.01,Wunderground v.1.15,2013-06-28 05:42:00,
2013-06-28 01:50:00,64.9,62.5,29.57,SW,231,0.0,0.0,92,0.00,,,0.01,Wunderground v.1.15,2013-06-28 05:50:00,
2013-06-28 01:55:00,64.7,62.3,29.57,SW,231,0.0,0.0,92,0.00,,,0.01,Wunderground v.1.15,2013-06-28 05:55:00,
2013-06-28 02:00:00,64.9,62.5,29.58,SW,230,0.0,0.0,92,0.00,,,0.01,Wunderground v.1.15,2013-06-28 06:00:00,
2013-06-28 02:06:00,65.0,62.6,29.58,WSW,250,0.0,0.0,92,0.00,,,0.01,Wunderground v.1.15,2013-06-28 06:06:00,
2013-06-28 02:12:00,64.8,62.4,29.58,WSW,251,0.0,0.0,92,0.00,,,0.01,Wunderground v.1.15,2013-06-28 06:12:00,
2013-06-28 02:18:00,64.8,62.4,29.58,WSW,250,0.0,0.0,92,0.00,,,0.01,Wunderground v.1.15,2013-06-28 06:18:00,
2013-06-28 02:23:00,64.5,62.1,29.58,WSW,250,0.0,0.0,92,0.00,,,0.01,Wunderground v.1.15,2013-06-28 06:23:00,
2013-06-28 02:30:00,64.5,62.1,29.58,WSW,251,0.0,0.0,92,0.00,,,0.01,Wunderground v.1.15,2013-06-28 06:30:00,
2013-06-28 02:35:00,64.5,62.1,29.58,WSW,250,0.0,0.0,92,0.00,,,0.01,Wunderground v.1.15,2013-06-28 06:35:00,
2013-06-28 02:40:00,64.2,61.8,29.58,WSW,250,0.0,0.0,92,0.00,,,0.01,Wunderground v.1.15,2013-06-28 06:40:00,
2013-06-28 02:46:00,64.0,61.6,29.58,WSW,250,0.0,0.0,92,0.00,,,0.01,Wunderground v.1.15,2013-06-28 06:46:00,
2013-06-28 02:51:00,63.9,61.5,29.58,WSW,250,0.0,0.0,92,0.00,,,0.01,Wunderground v.1.15,2013-06-28 06:51:00,
2013-06-28 02:57:00,63.9,61.5,29.58,WSW,250,0.0,0.0,92,0.00,,,0.01,Wunderground v.1.15,2013-06-28 06:57:00,
2013-06-28 03:03:00,63.8,61.4,29.58,WSW,250,0.0,0.0,92,0.00,,,0.01,Wunderground v.1.15,2013-06-28 07:03:00,
2013-06-28 03:10:00,63.7,61.3,29.58,WSW,251,0.0,0.0,92,0.00,,,0.01,Wunderground v.1.15,2013-06-28 07:10:00,
2013-06-28 03:15:00,63.5,61.1,29.57,WSW,251,0.0,0.0,92,0.00,,,0.01,Wunderground v.1.15,2013-06-28 07:15:00,
2013-06-28 03:20:00,63.4,61.0,29.57,WSW,250,0.0,0.0,92,0.00,,,0.01,Wunderground v.1.15,2013-06-28 07:20:00,
2013-06-28 03:26:00,63.5,61.1,29.57,WSW,250,0.0,0.0,92,0.00,,,0.01,Wunderground v.1.15,2013-06-28 07:26:00,
2013-06-28 03:32:00,63.3,60.9,29.57,WSW,250,0.0,0.0,92,0.00,,,0.01,Wunderground v.1.15,2013-06-28 07:32:00,
2013-06-28 03:38:00,63.2,60.8,29.57,WSW,251,0.0,0.0,92,0.00,,,0.01,Wunderground v.1.15,2013-06-28 07:38:00,
2013-06-28 03:43:00,63.2,60.8,29.57,WSW,250,0.0,0.0,92,0.00,,,0.01,Wunderground v.1.15,2013-06-28 07:43:00,
2013-06-28 03:50:00,63.3,61.2,29.57,WSW,250,0.0,0.0,93,0.00,,,0.01,Wunderground v.1.15,2013-06-28 07:50:00,
2013-06-28 03:55:00,63.4,61.3,29.57,WSW,250,0.0,0.0,93,0.00,,,0.01,Wunderground v.1.15,2013-06-28 07:55:00,
2013-06-28 04:01:00,63.3,61.2,29.56,WSW,250,0.0,0.0,93,0.00,,,0.01,Wunderground v.1.15,2013-06-28 08:01:00,
2013-06-28 04:07:00,63.3,61.2,29.56,WSW,251,0.0,0.0,93,0.00,,,0.01,Wunderground v.1.15,2013-06-28 08:07:00,
2013-06-28 04:13:00,63.1,61.0,29.56,WSW,250,0.0,0.0,93,0.00,,,0.01,Wunderground v.1.15,2013-06-28 08:13:00,
2013-06-28 04:19:00,63.1,61.0,29.56,WSW,250,0.0,0.0,93,0.00,,,0.01,Wunderground v.1.15,2013-06-28 08:19:00,
2013-06-28 04:25:00,63.1,61.0,29.55,WSW,250,0.0,0.0,93,0.00,,,0.01,Wunderground v.1.15,2013-06-28 08:25:00,
2013-06-28 04:31:00,62.9,60.8,29.55,WSW,250,0.0,0.0,93,0.00,,,0.01,Wunderground v.1.15,2013-06-28 08:31:00,
2013-06-28 04:38:00,63.0,60.9,29.55,WSW,251,0.0,0.0,93,0.00,,,0.01,Wunderground v.1.15,2013-06-28 08:38:00,
2013-06-28 04:44:00,62.7,60.6,29.55,WSW,250,0.0,0.0,93,0.00,,,0.01,Wunderground v.1.15,2013-06-28 08:44:00,
2013-06-28 04:49:00,62.8,60.7,29.55,WSW,250,0.0,0.0,93,0.00,,,0.01,Wunderground v.1.15,2013-06-28 08:49:00,
2013-06-28 04:55:00,62.6,60.5,29.55,WSW,250,0.0,0.0,93,0.00,,,0.01,Wunderground v.1.15,2013-06-28 08:55:00,
2013-06-28 05:00:00,62.5,60.4,29.55,WSW,250,0.0,0.0,93,0.00,,,0.01,Wunderground v.1.15,2013-06-28 09:00:00,
2013-06-28 05:06:00,62.4,60.3,29.55,WSW,250,0.0,0.0,93,0.00,,,0.01,Wunderground v.1.15,2013-06-28 09:06:00,
2013-06-28 05:11:00,62.4,60.3,29.55,WSW,250,0.0,0.0,93,0.00,,,0.01,Wunderground v.1.15,2013-06-28 09:11:00,
2013-06-28 05:16:00,62.3,60.2,29.55,WSW,250,0.0,0.0,93,0.00,,,0.01,Wunderground v.1.15,2013-06-28 09:16:00,
2013-06-28 05:22:00,62.2,60.2,29.55,WSW,250,0.0,0.0,93,0.00,,,0.01,Wunderground v.1.15,2013-06-28 09:22:00,
2013-06-28 05:28:00,62.3,60.2,29.55,WSW,250,0.0,0.0,93,0.00,,,0.01,Wunderground v.1.15,2013-06-28 09:28:00,
2013-06-28 05:34:00,62.3,60.2,29.55,WSW,250,0.0,0.0,93,0.00,,,0.01,Wunderground v.1.15,2013-06-28 09:34:00,
2013-06-28 05:39:00,62.4,60.3,29.55,WSW,250,0.0,0.0,93,0.00,,,0.01,Wunderground v.1.15,2013-06-28 09:39:00,
2013-06-28 05:45:00,62.4,60.3,29.55,WSW,250,0.0,0.0,93,0.00,,,0.01,Wunderground v.1.15,2013-06-28 09:45:00,
2013-06-28 05:51:00,62.5,60.4,29.55,WSW,250,0.0,0.0,93,0.00,,,0.01,Wunderground v.1.15,2013-06-28 09:51:00,
2013-06-28 05:56:00,62.7,60.6,29.55,WSW,250,0.0,0.0,93,0.00,,,0.01,Wunderground v.1.15,2013-06-28 09:56:00,
2013-06-28 06:02:00,62.6,60.5,29.55,WSW,250,0.0,0.0,93,0.00,,,0.01,Wunderground v.1.15,2013-06-28 10:02:00,
2013-06-28 06:09:00,62.6,60.5,29.55,WSW,250,0.0,0.0,93,0.00,,,0.01,Wunderground v.1.15,2013-06-28 10:09:00,
2013-06-28 06:15:00,62.9,60.8,29.54,SSW,207,0.0,0.0,93,0.00,,,0.01,Wunderground v.1.15,2013-06-28 10:15:00,
2013-06-28 06:20:00,63.0,60.9,29.54,SSW,207,0.0,0.0,93,0.00,,,0.01,Wunderground v.1.15,2013-06-28 10:20:00,
2013-06-28 06:26:00,62.9,60.8,29.54,SSW,207,0.0,0.0,93,0.00,,,0.01,Wunderground v.1.15,2013-06-28 10:26:00,
2013-06-28 06:32:00,62.8,60.7,29.54,SSW,207,0.0,0.0,93,0.00,,,0.01,Wunderground v.1.15,2013-06-28 10:32:00,
2013-06-28 06:37:00,62.7,60.6,29.54,SSW,207,0.0,0.0,93,0.00,,,0.01,Wunderground v.1.15,2013-06-28 10:37:00,
2013-06-28 06:42:00,62.9,60.8,29.54,SSW,207,0.0,0.0,93,0.00,,,0.01,Wunderground v.1.15,2013-06-28 10:42:00,
2013-06-28 06:48:00,63.0,60.9,29.54,SSW,207,0.0,0.0,93,0.00,,,0.01,Wunderground v.1.15,2013-06-28 10:48:00,
2013-06-28 06:53:00,63.0,60.9,29.54,SSW,207,0.0,0.0,93,0.00,,,0.01,Wunderground v.1.15,2013-06-28 10:53:00,
2013-06-28 06:58:00,63.1,61.0,29.54,SSW,207,0.0,0.0,93,0.00,,,0.01,Wunderground v.1.15,2013-06-28 10:58:00,
2013-06-28 07:04:00,63.3,61.5,29.54,SSW,207,0.0,0.0,94,0.00,,,0.01,Wunderground v.1.15,2013-06-28 11:04:00,
2013-06-28 07:10:00,63.6,61.8,29.54,SW,232,0.0,0.0,94,0.00,,,0.01,Wunderground v.1.15,2013-06-28 11:10:00,
2013-06-28 07:15:00,64.1,62.3,29.54,WSW,246,1.0,2.0,94,0.00,,,0.01,Wunderground v.1.15,2013-06-28 11:15:00,
2013-06-28 07:21:00,64.3,62.5,29.53,WSW,239,1.0,1.0,94,0.00,,,0.01,Wunderground v.1.15,2013-06-28 11:21:00,
2013-06-28 07:26:00,64.5,62.7,29.53,SSW,205,0.0,1.0,94,0.00,,,0.01,Wunderground v.1.15,2013-06-28 11:26:00,
2013-06-28 07:32:00,64.7,62.9,29.53,West,276,0.0,0.0,94,0.00,,,0.01,Wunderground v.1.15,2013-06-28 11:32:00,
2013-06-28 07:37:00,65.0,63.2,29.54,West,260,0.0,0.0,94,0.00,,,0.01,Wunderground v.1.15,2013-06-28 11:37:00,
2013-06-28 07:43:00,65.2,63.4,29.54,WSW,256,0.0,3.0,94,0.00,,,0.01,Wunderground v.1.15,2013-06-28 11:43:00,
2013-06-28 07:50:00,65.2,63.4,29.53,WSW,256,0.0,3.0,94,0.00,,,0.01,Wunderground v.1.15,2013-06-28 11:50:00,
2013-06-28 07:55:00,65.4,63.6,29.53,NW,320,0.0,3.0,94,0.00,,,0.01,Wunderground v.1.15,2013-06-28 11:55:00,
2013-06-28 08:00:00,65.6,63.8,29.53,NW,320,0.0,3.0,94,0.00,,,0.01,Wunderground v.1.15,2013-06-28 12:00:00,
2013-06-28 08:06:00,65.6,63.8,29.54,WNW,295,0.0,3.0,94,0.00,,,0.01,Wunderground v.1.15,2013-06-28 12:06:00,
2013-06-28 08:11:00,66.0,64.2,29.53,WNW,294,0.0,0.0,94,0.00,,,0.01,Wunderground v.1.15,2013-06-28 12:11:00,
2013-06-28 08:16:00,66.2,64.4,29.54,WNW,294,0.0,0.0,94,0.00,,,0.01,Wunderground v.1.15,2013-06-28 12:16:00,
2013-06-28 08:21:00,66.4,64.6,29.54,WSW,257,0.0,0.0,94,0.00,,,0.01,Wunderground v.1.15,2013-06-28 12:21:00,
2013-06-28 08:27:00,66.5,64.7,29.54,West,278,0.0,1.0,94,0.00,,,0.01,Wunderground v.1.15,2013-06-28 12:27:00,
2013-06-28 08:34:00,66.6,64.8,29.53,NW,323,1.0,2.0,94,0.00,,,0.01,Wunderground v.1.15,2013-06-28 12:34:00,
2013-06-28 08:40:00,66.7,64.6,29.54,WSW,257,1.0,2.0,93,0.00,,,0.01,Wunderground v.1.15,2013-06-28 12:40:00,
2013-06-28 08:45:00,66.8,64.7,29.54,NW,317,1.0,2.0,93,0.00,,,0.01,Wunderground v.1.15,2013-06-28 12:45:00,
2013-06-28 08:50:00,66.9,64.8,29.53,NW,310,1.0,2.0,93,0.00,,,0.01,Wunderground v.1.15,2013-06-28 12:50:00,
2013-06-28 08:55:00,66.9,64.8,29.53,WSW,258,1.0,2.0,93,0.00,,,0.01,Wunderground v.1.15,2013-06-28 12:55:00,
2013-06-28 09:00:00,67.2,65.1,29.53,West,260,0.0,2.0,93,0.00,,,0.01,Wunderground v.1.15,2013-06-28 13:00:00,
2013-06-28 09:07:00,67.7,65.6,29.53,West,270,1.0,2.0,93,0.00,,,0.01,Wunderground v.1.15,2013-06-28 13:07:00,
2013-06-28 09:15:00,68.9,66.8,29.53,West,267,0.0,4.0,93,0.00,,,0.01,Wunderground v.1.15,2013-06-28 13:15:00,
2013-06-28 09:21:00,69.4,67.3,29.52,West,277,1.0,4.0,93,0.00,,,0.01,Wunderground v.1.15,2013-06-28 13:21:00,
2013-06-28 09:27:00,69.9,67.5,29.52,NW,307,1.0,4.0,92,0.00,,,0.01,Wunderground v.1.15,2013-06-28 13:27:00,
2013-06-28 09:34:00,70.8,67.4,29.52,WSW,257,1.0,4.0,89,0.00,,,0.01,Wunderground v.1.15,2013-06-28 13:34:00,
2013-06-28 09:40:00,71.4,68.3,29.52,West,269,1.0,4.0,90,0.00,,,0.01,Wunderground v.1.15,2013-06-28 13:40:00,
2013-06-28 09:45:00,71.4,67.3,29.52,WNW,297,2.0,3.0,87,0.00,,,0.01,Wunderground v.1.15,2013-06-28 13:45:00,
2013-06-28 09:50:00,71.1,67.0,29.52,WNW,300,2.0,3.0,87,0.00,,,0.01,Wunderground v.1.15,2013-06-28 13:50:00,
2013-06-28 09:57:00,71.5,67.8,29.51,WNW,287,2.0,4.0,88,0.00,,,0.01,Wunderground v.1.15,2013-06-28 13:57:00,
2013-06-28 10:02:00,71.9,67.5,29.52,West,274,2.0,5.0,86,0.00,,,0.01,Wunderground v.1.15,2013-06-28 14:02:00,
2013-06-28 10:08:00,72.1,68.0,29.51,WNW,292,3.0,5.0,87,0.00,,,0.01,Wunderground v.1.15,2013-06-28 14:08:00,
2013-06-28 10:14:00,72.7,67.9,29.51,NNW,340,3.0,6.0,85,0.00,,,0.01,Wunderground v.1.15,2013-06-28 14:14:00,
2013-06-28 10:20:00,73.1,67.6,29.51,NW,326,3.0,8.0,83,0.00,,,0.01,Wunderground v.1.15,2013-06-28 14:20:00,
2013-06-28 10:25:00,72.9,67.4,29.51,NW,321,3.0,8.0,83,0.00,,,0.01,Wunderground v.1.15,2013-06-28 14:25:00,
2013-06-28 10:30:00,73.2,67.4,29.51,NW,308,3.0,5.0,82,0.00,,,0.01,Wunderground v.1.15,2013-06-28 14:30:00,
2013-06-28 10:35:00,73.3,67.8,29.51,NW,306,3.0,5.0,83,0.00,,,0.01,Wunderground v.1.15,2013-06-28 14:35:00,
2013-06-28 10:42:00,73.7,67.1,29.51,NW,304,3.0,9.0,80,0.00,,,0.01,Wunderground v.1.15,2013-06-28 14:42:00,
2013-06-28 10:48:00,73.5,67.3,29.51,South,174,3.0,9.0,81,0.00,,,0.01,Wunderground v.1.15,2013-06-28 14:48:00,
2013-06-28 10:53:00,74.3,67.7,29.51,NW,312,3.0,9.0,80,0.00,,,0.01,Wunderground v.1.15,2013-06-28 14:53:00,
2013-06-28 11:00:00,74.5,67.6,29.51,WNW,288,3.0,3.0,79,0.00,,,0.01,Wunderground v.1.15,2013-06-28 15:00:00,
2013-06-28 11:06:00,75.0,66.9,29.50,WNW,293,3.0,9.0,76,0.00,,,0.01,Wunderground v.1.15,2013-06-28 15:06:00,
2013-06-28 11:11:00,74.9,67.2,29.51,NNW,330,4.0,9.0,77,0.00,,,0.01,Wunderground v.1.15,2013-06-28 15:11:00,
2013-06-28 11:16:00,75.9,67.8,29.50,NNW,328,3.0,9.0,76,0.00,,,0.01,Wunderground v.1.15,2013-06-28 15:16:00,
2013-06-28 11:21:00,75.5,67.0,29.50,WNW,297,2.0,9.0,75,0.00,,,0.01,Wunderground v.1.15,2013-06-28 15:21:00,
2013-06-28 11:27:00,75.2,67.5,29.50,NW,311,3.0,9.0,77,0.00,,,0.01,Wunderground v.1.15,2013-06-28 15:27:00,
2013-06-28 11:33:00,75.8,66.5,29.50,WSW,252,3.0,9.0,73,0.00,,,0.01,Wunderground v.1.15,2013-06-28 15:33:00,
2013-06-28 11:38:00,76.4,65.9,29.50,WNW,288,5.0,10.0,70,0.00,,,0.01,Wunderground v.1.15,2013-06-28 15:38:00,
2013-06-28 11:45:00,76.6,66.5,29.50,WNW,291,5.0,9.0,71,0.00,,,0.01,Wunderground v.1.15,2013-06-28 15:45:00,
2013-06-28 11:51:00,75.9,66.6,29.50,NNW,329,4.0,9.0,73,0.00,,,0.01,Wunderground v.1.15,2013-06-28 15:51:00,
2013-06-28 11:57:00,76.2,66.9,29.50,NW,309,4.0,9.0,73,0.00,,,0.01,Wunderground v.1.15,2013-06-28 15:57:00,
2013-06-28 12:02:00,76.5,66.0,29.50,WNW,295,4.0,9.0,70,0.00,,,0.01,Wunderground v.1.15,2013-06-28 16:02:00,
2013-06-28 12:08:00,76.2,66.1,29.50,NW,304,5.0,9.0,71,0.00,,,0.01,Wunderground v.1.15,2013-06-28 16:08:00,
2013-06-28 12:13:00,76.6,66.1,29.50,WNW,301,5.0,12.0,70,0.00,,,0.01,Wunderground v.1.15,2013-06-28 16:13:00,
2013-06-28 12:20:00,77.1,68.2,29.50,NW,319,5.0,12.0,74,0.00,,,0.01,Wunderground v.1.15,2013-06-28 16:20:00,
2013-06-28 12:25:00,77.5,66.9,29.50,NW,308,4.0,12.0,70,0.00,,,0.01,Wunderground v.1.15,2013-06-28 16:25:00,
2013-06-28 12:30:00,76.9,66.0,29.50,NNW,336,5.0,12.0,69,0.00,,,0.01,Wunderground v.1.15,2013-06-28 16:30:00,
2013-06-28 12:36:00,76.3,67.0,29.50,NNW,335,5.0,12.0,73,0.00,,,0.01,Wunderground v.1.15,2013-06-28 16:36:00,
2013-06-28 12:41:00,76.5,66.8,29.50,NE,44,4.0,14.0,72,0.00,,,0.01,Wunderground v.1.15,2013-06-28 16:41:00,
2013-06-28 12:47:00,76.6,66.1,29.49,WNW,287,6.0,14.0,70,0.00,,,0.01,Wunderground v.1.15,2013-06-28 16:47:00,
2013-06-28 12:53:00,76.8,66.3,29.49,WNW,287,7.0,14.0,70,0.00,,,0.01,Wunderground v.1.15,2013-06-28 16:53:00,
2013-06-28 12:58:00,77.0,65.2,29.49,NW,321,5.0,14.0,67,0.00,,,0.01,Wunderground v.1.15,2013-06-28 16:58:00,
2013-06-28 13:06:00,77.5,66.5,29.49,NW,323,4.0,14.0,69,0.00,,,0.01,Wunderground v.1.15,2013-06-28 17:06:00,
2013-06-28 13:12:00,77.2,64.1,29.49,WNW,283,6.0,15.0,64,0.00,,,0.01,Wunderground v.1.15,2013-06-28 17:12:00,
2013-06-28 13:17:00,77.1,64.9,29.49,NNE,17,7.0,15.0,66,0.00,,,0.01,Wunderground v.1.15,2013-06-28 17:17:00,
2013-06-28 13:23:00,77.0,64.8,29.48,NNW,339,5.0,14.0,66,0.00,,,0.01,Wunderground v.1.15,2013-06-28 17:23:00,
2013-06-28 13:30:00,77.1,63.5,29.48,NW,307,5.0,14.0,63,0.00,,,0.01,Wunderground v.1.15,2013-06-28 17:30:00,
2013-06-28 13:35:00,77.4,66.8,29.48,NW,311,5.0,14.0,70,0.00,,,0.01,Wunderground v.1.15,2013-06-28 17:35:00,
2013-06-28 13:41:00,77.4,67.7,29.48,WNW,285,4.0,5.0,72,0.00,,,0.01,Wunderground v.1.15,2013-06-28 17:41:00,
2013-06-28 13:46:00,77.0,66.5,29.48,WNW,297,5.0,19.0,70,0.00,,,0.01,Wunderground v.1.15,2013-06-28 17:46:00,
2013-06-28 13:53:00,76.2,67.3,29.48,NW,326,5.0,19.0,74,0.00,,,0.01,Wunderground v.1.15,2013-06-28 17:53:00,
2013-06-28 14:00:00,76.2,66.9,29.48,North,9,4.0,19.0,73,0.00,,,0.01,Wunderground v.1.15,2013-06-28 18:00:00,
2013-06-28 14:06:00,76.2,67.3,29.48,WNW,293,4.0,19.0,74,0.00,,,0.01,Wunderground v.1.15,2013-06-28 18:06:00,
2013-06-28 14:12:00,76.5,67.2,29.48,North,8,5.0,13.0,73,0.00,,,0.01,Wunderground v.1.15,2013-06-28 18:12:00,
2013-06-28 14:17:00,76.5,66.8,29.49,North,8,5.0,13.0,72,0.00,,,0.01,Wunderground v.1.15,2013-06-28 18:17:00,
2013-06-28 14:23:00,76.6,66.5,29.48,NNW,348,4.0,13.0,71,0.00,,,0.01,Wunderground v.1.15,2013-06-28 18:23:00,
2013-06-28 14:28:00,76.8,67.1,29.48,North,1,5.0,13.0,72,0.00,,,0.01,Wunderground v.1.15,2013-06-28 18:28:00,
2013-06-28 14:34:00,76.4,65.9,29.48,NNW,339,5.0,13.0,70,0.00,,,0.01,Wunderground v.1.15,2013-06-28 18:34:00,
2013-06-28 14:40:00,76.6,66.5,29.48,NNE,19,5.0,13.0,71,0.00,,,0.01,Wunderground v.1.15,2013-06-28 18:40:00,
2013-06-28 14:45:00,77.1,66.1,29.48,NNW,342,5.0,13.0,69,0.00,,,0.01,Wunderground v.1.15,2013-06-28 18:45:00,
2013-06-28 14:51:00,77.0,65.6,29.48,ENE,76,6.0,13.0,68,0.00,,,0.01,Wunderground v.1.15,2013-06-28 18:51:00,
2013-06-28 14:57:00,77.3,66.7,29.48,NNW,340,6.0,13.0,70,0.00,,,0.01,Wunderground v.1.15,2013-06-28 18:57:00,
2013-06-28 15:03:00,77.4,64.7,29.48,NNW,332,5.0,13.0,65,0.00,,,0.01,Wunderground v.1.15,2013-06-28 19:03:00,
2013-06-28 15:10:00,75.7,63.1,29.48,NW,321,5.0,13.0,65,0.00,,,0.01,Wunderground v.1.15,2013-06-28 19:10:00,
2013-06-28 15:15:00,75.0,62.4,29.47,NW,308,4.0,13.0,65,0.00,,,0.01,Wunderground v.1.15,2013-06-28 19:15:00,
2013-06-28 15:20:00,74.5,62.8,29.47,North,354,4.0,14.0,67,0.00,,,0.01,Wunderground v.1.15,2013-06-28 19:20:00,
2013-06-28 15:26:00,74.0,62.8,29.47,NNW,338,4.0,14.0,68,0.00,,,0.01,Wunderground v.1.15,2013-06-28 19:26:00,
2013-06-28 15:32:00,73.5,62.7,29.46,NW,311,4.0,14.0,69,0.00,,,0.01,Wunderground v.1.15,2013-06-28 19:32:00,
2013-06-28 15:37:00,73.4,63.0,29.46,NW,322,3.0,14.0,70,0.00,,,0.01,Wunderground v.1.15,2013-06-28 19:37:00,
2013-06-28 15:44:00,74.4,64.4,29.46,NW,323,2.0,14.0,71,0.00,,,0.01,Wunderground v.1.15,2013-06-28 19:44:00,
2013-06-28 15:50:00,74.5,64.1,29.47,WNW,293,3.0,3.0,70,0.00,,,0.01,Wunderground v.1.15,2013-06-28 19:50:00,
2013-06-28 15:56:00,74.9,63.6,29.48,NW,318,4.0,18.0,68,0.00,,,0.01,Wunderground v.1.15,2013-06-28 19:56:00,
2013-06-28 16:02:00,74.5,63.7,29.48,NNW,328,4.0,18.0,69,0.00,,,0.01,Wunderground v.1.15,2013-06-28 20:02:00,
2013-06-28 16:08:00,74.2,64.2,29.48,North,5,3.0,18.0,71,0.00,,,0.01,Wunderground v.1.15,2013-06-28 20:08:00,
2013-06-28 16:13:00,73.9,64.3,29.48,WNW,290,2.0,10.0,72,0.00,,,0.01,Wunderground v.1.15,2013-06-28 20:13:00,
2013-06-28 16:18:00,73.9,64.7,29.49,NW,304,2.0,10.0,73,0.00,,,0.01,Wunderground v.1.15,2013-06-28 20:18:00,
2013-06-28 16:24:00,73.6,64.4,29.48,NW,312,2.0,10.0,73,0.00,,,0.01,Wunderground v.1.15,2013-06-28 20:24:00,
2013-06-28 16:30:00,73.3,64.1,29.48,NW,307,3.0,10.0,73,0.00,,,0.01,Wunderground v.1.15,2013-06-28 20:30:00,
2013-06-28 16:35:00,73.1,64.7,29.49,NW,316,3.0,10.0,75,0.00,,,0.01,Wunderground v.1.15,2013-06-28 20:35:00,
2013-06-28 16:42:00,72.9,64.9,29.49,West,262,2.0,6.0,76,0.00,,,0.01,Wunderground v.1.15,2013-06-28 20:42:00,
2013-06-28 16:48:00,71.8,63.1,29.50,West,277,5.0,8.0,74,0.00,,,0.01,Wunderground v.1.15,2013-06-28 20:48:00,
2013-06-28 16:53:00,70.2,62.6,29.49,NW,316,6.0,8.0,77,0.00,,,0.01,Wunderground v.1.15,2013-06-28 20:53:00,
2013-06-28 17:00:00,67.8,62.4,29.49,West,270,4.0,4.0,83,0.00,,,0.01,Wunderground v.1.15,2013-06-28 21:00:00,
2013-06-28 17:06:00,66.6,61.6,29.49,West,280,3.0,6.0,84,0.00,,,0.02,Wunderground v.1.15,2013-06-28 21:06:00,
2013-06-28 17:12:00,66.2,61.9,29.49,WSW,245,3.0,18.0,86,0.07,,,0.03,Wunderground v.1.15,2013-06-28 21:12:00,
2013-06-28 17:18:00,65.8,61.5,29.49,WNW,283,3.0,18.0,86,0.15,,,0.04,Wunderground v.1.15,2013-06-28 21:18:00,
2013-06-28 17:23:00,65.5,61.5,29.48,West,280,3.0,18.0,87,0.07,,,0.04,Wunderground v.1.15,2013-06-28 21:23:00,
2013-06-28 17:28:00,65.3,61.3,29.48,WNW,295,2.0,18.0,87,0.04,,,0.04,Wunderground v.1.15,2013-06-28 21:28:00,
2013-06-28 17:33:00,65.2,61.6,29.48,WNW,296,2.0,18.0,88,0.04,,,0.05,Wunderground v.1.15,2013-06-28 21:33:00,
2013-06-28 17:39:00,65.4,61.8,29.49,WNW,293,2.0,18.0,88,0.04,,,0.05,Wunderground v.1.15,2013-06-28 21:39:00,
2013-06-28 17:47:00,65.3,62.0,29.49,WNW,284,2.0,18.0,89,0.00,,,0.05,Wunderground v.1.15,2013-06-28 21:47:00,
2013-06-28 17:53:00,65.2,62.2,29.48,NW,308,3.0,10.0,90,0.00,,,0.05,Wunderground v.1.15,2013-06-28 21:53:00,
2013-06-28 18:00:00,65.6,62.6,29.48,WNW,288,2.0,2.0,90,0.00,,,0.05,Wunderground v.1.15,2013-06-28 22:00:00,
2013-06-28 18:05:00,65.9,62.9,29.48,WNW,296,1.0,10.0,90,0.00,,,0.05,Wunderground v.1.15,2013-06-28 22:05:00,
2013-06-28 18:11:00,66.3,63.3,29.48,NW,314,2.0,10.0,90,0.00,,,0.05,Wunderground v.1.15,2013-06-28 22:11:00,
2013-06-28 18:17:00,66.8,63.8,29.48,WNW,296,1.0,10.0,90,0.00,,,0.05,Wunderground v.1.15,2013-06-28 22:17:00,
2013-06-28 18:22:00,67.1,64.1,29.48,NNW,339,3.0,6.0,90,0.00,,,0.05,Wunderground v.1.15,2013-06-28 22:22:00,
2013-06-28 18:27:00,67.4,64.4,29.48,WNW,288,3.0,6.0,90,0.00,,,0.05,Wunderground v.1.15,2013-06-28 22:27:00,
2013-06-28 18:33:00,67.5,64.5,29.48,NW,307,2.0,6.0,90,0.00,,,0.05,Wunderground v.1.15,2013-06-28 22:33:00,
2013-06-28 18:39:00,67.9,64.9,29.48,WSW,246,2.0,5.0,90,0.00,,,0.05,Wunderground v.1.15,2013-06-28 22:39:00,
2013-06-28 18:44:00,68.2,65.2,29.48,West,280,2.0,5.0,90,0.00,,,0.05,Wunderground v.1.15,2013-06-28 22:44:00,
2013-06-28 18:50:00,69.1,65.7,29.48,West,280,2.0,5.0,89,0.00,,,0.05,Wunderground v.1.15,2013-06-28 22:50:00,
2013-06-28 18:55:00,69.9,66.2,29.48,WSW,257,2.0,5.0,88,0.00,,,0.05,Wunderground v.1.15,2013-06-28 22:55:00,
2013-06-28 19:01:00,69.6,65.2,29.49,WNW,301,3.0,5.0,86,0.00,,,0.05,Wunderground v.1.15,2013-06-28 23:01:00,
2013-06-28 19:06:00,70.1,65.4,29.49,NNW,346,3.0,5.0,85,0.00,,,0.05,Wunderground v.1.15,2013-06-28 23:06:00,
2013-06-28 19:12:00,71.2,65.4,29.49,WNW,285,2.0,7.0,82,0.00,,,0.05,Wunderground v.1.15,2013-06-28 23:12:00,
2013-06-28 19:17:00,71.6,65.5,29.49,NW,311,1.0,7.0,81,0.00,,,0.05,Wunderground v.1.15,2013-06-28 23:17:00,
2013-06-28 19:23:00,71.3,64.4,29.49,WNW,294,2.0,7.0,79,0.00,,,0.05,Wunderground v.1.15,2013-06-28 23:23:00,
2013-06-28 19:28:00,71.1,64.6,29.50,NW,309,2.0,7.0,80,0.00,,,0.05,Wunderground v.1.15,2013-06-28 23:28:00,
2013-06-28 19:33:00,70.7,64.9,29.50,WSW,258,1.0,7.0,82,0.00,,,0.05,Wunderground v.1.15,2013-06-28 23:33:00,
2013-06-28 19:40:00,70.3,64.2,29.50,NW,312,1.0,7.0,81,0.00,,,0.05,Wunderground v.1.15,2013-06-28 23:40:00,
2013-06-28 19:45:00,69.9,63.8,29.50,NW,308,1.0,4.0,81,0.00,,,0.05,Wunderground v.1.15,2013-06-28 23:45:00,
2013-06-28 19:52:00,69.7,62.9,29.50,WNW,297,1.0,4.0,79,0.00,,,0.05,Wunderground v.1.15,2013-06-28 23:52:00,
2013-06-28 19:57:00,70.1,62.6,29.50,WNW,303,2.0,4.0,77,0.00,,,0.05,Wunderground v.1.15,2013-06-28 23:57:00,
2013-06-28 20:05:00,70.9,63.0,29.50,WNW,285,2.0,4.0,76,0.00,,,0.05,Wunderground v.1.15,2013-06-29 00:05:00,
2013-06-28 20:10:00,70.3,63.1,29.51,WNW,294,2.0,2.0,78,0.00,,,0.05,Wunderground v.1.15,2013-06-29 00:10:00,
2013-06-28 20:16:00,69.6,62.8,29.51,WNW,290,2.0,5.0,79,0.00,,,0.05,Wunderground v.1.15,2013-06-29 00:16:00,
2013-06-28 20:21:00,69.4,62.6,29.51,West,274,2.0,5.0,79,0.00,,,0.05,Wunderground v.1.15,2013-06-29 00:21:00,
2013-06-28 20:28:00,68.9,62.8,29.51,WNW,284,1.0,5.0,81,0.00,,,0.05,Wunderground v.1.15,2013-06-29 00:28:00,
2013-06-28 20:34:00,68.6,62.9,29.51,WNW,297,1.0,5.0,82,0.00,,,0.05,Wunderground v.1.15,2013-06-29 00:34:00,
2013-06-28 20:40:00,68.2,62.8,29.51,WNW,284,1.0,5.0,83,0.00,,,0.05,Wunderground v.1.15,2013-06-29 00:40:00,
2013-06-28 20:45:00,68.0,62.6,29.51,West,281,1.0,5.0,83,0.00,,,0.05,Wunderground v.1.15,2013-06-29 00:45:00,
2013-06-28 20:51:00,67.9,62.9,29.51,WNW,285,2.0,5.0,84,0.00,,,0.05,Wunderground v.1.15,2013-06-29 00:51:00,
2013-06-28 20:56:00,68.0,63.0,29.51,WNW,284,2.0,5.0,84,0.00,,,0.05,Wunderground v.1.15,2013-06-29 00:56:00,
2013-06-28 21:03:00,67.8,63.1,29.51,West,266,2.0,5.0,85,0.00,,,0.05,Wunderground v.1.15,2013-06-29 01:03:00,
2013-06-28 21:08:00,67.6,62.6,29.51,WNW,294,2.0,5.0,84,0.00,,,0.05,Wunderground v.1.15,2013-06-29 01:08:00,
2013-06-28 21:14:00,67.5,62.5,29.51,West,280,3.0,5.0,84,0.00,,,0.05,Wunderground v.1.15,2013-06-29 01:14:00,
2013-06-28 21:20:00,67.3,62.3,29.51,WNW,283,2.0,5.0,84,0.00,,,0.05,Wunderground v.1.15,2013-06-29 01:20:00,
2013-06-28 21:25:00,67.1,62.1,29.51,WNW,294,1.0,5.0,84,0.00,,,0.05,Wunderground v.1.15,2013-06-29 01:25:00,
2013-06-28 21:31:00,66.8,61.8,29.51,WNW,290,1.0,5.0,84,0.00,,,0.05,Wunderground v.1.15,2013-06-29 01:31:00,
2013-06-28 21:38:00,66.6,61.9,29.51,SW,228,1.0,5.0,85,0.00,,,0.05,Wunderground v.1.15,2013-06-29 01:38:00,
2013-06-28 21:44:00,66.2,61.6,29.50,SW,229,0.0,9.0,85,0.00,,,0.05,Wunderground v.1.15,2013-06-29 01:44:00,
2013-06-28 21:50:00,65.9,61.6,29.50,WNW,291,1.0,9.0,86,0.00,,,0.05,Wunderground v.1.15,2013-06-29 01:50:00,
2013-06-28 21:55:00,65.6,60.6,29.51,NW,304,1.0,9.0,84,0.00,,,0.05,Wunderground v.1.15,2013-06-29 01:55:00,
2013-06-28 22:00:00,65.5,59.9,29.50,SW,229,3.0,3.0,82,0.00,,,0.05,Wunderground v.1.15,2013-06-29 02:00:00,
2013-06-28 22:06:00,65.3,59.3,29.50,West,273,3.0,9.0,81,0.00,,,0.05,Wunderground v.1.15,2013-06-29 02:06:00,
2013-06-28 22:11:00,65.2,59.2,29.50,West,278,2.0,7.0,81,0.00,,,0.05,Wunderground v.1.15,2013-06-29 02:11:00,
2013-06-28 22:17:00,65.1,59.1,29.51,West,275,2.0,7.0,81,0.00,,,0.05,Wunderground v.1.15,2013-06-29 02:17:00,
2013-06-28 22:22:00,64.8,59.2,29.51,WSW,248,1.0,7.0,82,0.00,,,0.05,Wunderground v.1.15,2013-06-29 02:22:00,
2013-06-28 22:27:00,64.6,59.0,29.51,West,278,2.0,7.0,82,0.00,,,0.05,Wunderground v.1.15,2013-06-29 02:27:00,
2013-06-28 22:33:00,64.2,58.6,29.51,WNW,301,2.0,7.0,82,0.00,,,0.05,Wunderground v.1.15,2013-06-29 02:33:00,
2013-06-28 22:40:00,64.0,58.7,29.51,WNW,294,3.0,7.0,83,0.00,,,0.05,Wunderground v.1.15,2013-06-29 02:40:00,
2013-06-28 22:45:00,63.9,59.0,29.51,WNW,294,3.0,6.0,84,0.00,,,0.05,Wunderground v.1.15,2013-06-29 02:45:00,
2013-06-28 22:50:00,63.8,58.9,29.51,WNW,290,2.0,2.0,84,0.00,,,0.05,Wunderground v.1.15,2013-06-29 02:50:00,
2013-06-28 22:56:00,63.6,59.0,29.51,WNW,288,1.0,6.0,85,0.00,,,0.05,Wunderground v.1.15,2013-06-29 02:56:00,
2013-06-28 23:01:00,63.4,58.8,29.51,WNW,285,1.0,6.0,85,0.00,,,0.05,Wunderground v.1.15,2013-06-29 03:01:00,
2013-06-28 23:06:00,63.2,58.9,29.51,West,274,1.0,6.0,86,0.00,,,0.05,Wunderground v.1.15,2013-06-29 03:06:00,
2013-06-28 23:12:00,63.2,58.9,29.51,West,276,0.0,6.0,86,0.00,,,0.05,Wunderground v.1.15,2013-06-29 03:12:00,
2013-06-28 23:18:00,63.0,59.1,29.51,West,274,0.0,6.0,87,0.00,,,0.05,Wunderground v.1.15,2013-06-29 03:18:00,
2013-06-28 23:23:00,62.7,59.1,29.51,West,274,0.0,6.0,88,0.00,,,0.05,Wunderground v.1.15,2013-06-29 03:23:00,
2013-06-28 23:30:00,62.2,58.9,29.51,West,274,0.0,6.0,89,0.00,,,0.05,Wunderground v.1.15,2013-06-29 03:30:00,
2013-06-28 23:35:00,62.0,58.7,29.51,WSW,240,0.0,6.0,89,0.00,,,0.05,Wunderground v.1.15,2013-06-29 03:35:00,
2013-06-28 23:40:00,62.0,59.0,29.51,SE,145,0.0,2.0,90,0.00,,,0.05,Wunderground v.1.15,2013-06-29 03:40:00,
2013-06-28 23:47:00,61.8,58.8,29.51,SE,138,0.0,2.0,90,0.00,,,0.05,Wunderground v.1.15,2013-06-29 03:47:00,
2013-06-28 23:52:00,61.7,59.0,29.51,SE,143,0.0,2.0,91,0.00,,,0.05,Wunderground v.1.15,2013-06-29 03:52:00,
2013-06-28 23:58:00,61.6,58.9,29.51,SE,142,0.0,2.0,91,0.00,,,0.05,Wunderground v.1.15,2013-06-29 03:58:00,